Home > Weather > Bielsko-Biała > Past weeks

Flag for Poland Past Weather in Bielsko-Biała, Poland — Yesterday and Last 2 Weeks

Now
80 °F

Scattered clouds.


Feels Like: 80 °F
Forecast: 56 / 83 °F
Wind: 1 mph from Northeast

Location: Katowice

Current Time: Jul 23, 2016 at 7:01:05 PM

Latest Report: Jul 23, 2016 at 6:00 PM


Visibility: 19 mi

Pressure: 30.02 "Hg

Humidity: 40%

Dew Point: 54 °F

Location of Bielsko-BiałaLocation

Past Weather in Bielsko-Biała — Graph

°F

Bielsko-Biała Temperature Yesterday

Maximum temperature yesterday: 80 °F (at 5:00 PM)
Minimum temperature yesterday: 55 °F (at 5:00 AM)
Average temperature yesterday: 69 °F

High & Low Weather Summary for the Past Weeks

 TemperatureHumidityPressure
High88 °F (Jul 11, 6:00 PM)96% (Jul 20, 5:00 AM)30.22 "Hg (Jul 20, 5:00 AM)
Low49 °F (Jul 21, 4:00 AM)33% (Jul 21, 4:00 PM)29.60 "Hg (Jul 14, 10:00 AM)
Average65 °F73%30.00 "Hg
* Reported Jul 8 5:00 PM — Jul 23 5:00 PM, Bielsko-Biała, Weather by CustomWeather, © 2016

Note: Actual official high and low records may vary slightly from our data, if they occured in-between our weather recording intervals... More about our weather records

Advertising

Bielsko-Biała Weather History for the Previous 24 Hours

Scroll right to see more
 ConditionsComfort  
Time TempWeatherWind HumidityBarometerVisibility
5:00 PM
Sat, Jul 23
81 °FPartly sunny.2 mph34%30.02 "Hg19 mi
4:00 PM81 °FPartly sunny.1 mph33%30.03 "Hg19 mi
3:00 PM80 °FPartly sunny.2 mph33%30.04 "Hg19 mi
2:00 PM80 °FPartly sunny.2 mph36%30.04 "Hg19 mi
1:00 PM79 °FPartly sunny.2 mph38%30.05 "Hg19 mi
12:00 PM78 °FPartly sunny.1 mph36%30.05 "Hg19 mi
11:00 AM76 °FPartly sunny.1 mph38%30.05 "Hg19 mi
10:00 AM74 °FPartly sunny.1 mph50%30.05 "Hg19 mi
9:00 AM70 °FPartly sunny.1 mph62%30.06 "Hg19 mi
8:00 AM67 °FScattered clouds.2 mph68%30.06 "Hg12 mi
7:00 AM59 °FScattered clouds.No wind89%30.08 "Hg12 mi
6:00 AM53 °FPassing clouds.1 mph94%30.09 "Hg9 mi
5:00 AM51 °FPassing clouds.No wind93%30.07 "Hg9 mi
4:00 AM53 °FPassing clouds.No wind92%30.06 "Hg12 mi
3:00 AM53 °FClear.No wind91%30.07 "Hg12 mi
2:00 AM54 °FClear.No wind90%30.06 "Hg12 mi
1:00 AM55 °FClear.1 mph86%30.07 "Hg12 mi
12:00 AM57 °FClear.1 mph84%30.06 "Hg12 mi
11:00 PM
Fri, Jul 22
60 °FPassing clouds.No wind80%30.05 "Hg19 mi
10:00 PM62 °FPassing clouds.1 mph74%30.05 "Hg19 mi
9:00 PM69 °FPassing clouds.No wind53%30.03 "Hg19 mi
8:00 PM76 °FPassing clouds.2 mph38%29.99 "Hg19 mi
7:00 PM79 °FPartly sunny.1 mph37%29.98 "Hg19 mi
Weather by CustomWeather, © 2016

See weather overviewHow to use our weather pages